Location: Wien
(48.2082°N, 16.3738°E)
Time: 14:39:28
(UTC+02:00)

AO-27 - Visible Passes

Search period start: 13 April 2024 00:00
Search period end: 23 April 2024 00:00
Orbit: 785 x 795 km, 98.8° (Epoch: 13 April)

Date Brightness Start Highest point End Pass type
(mag) Time Alt. Az. Time Alt. Az. Time Alt. Az.
13 Apr 8.0 20:34:25 10° SE 20:39:26 49° ENE 20:44:29 10° N visible
13 Apr 9.5 22:14:49 10° SSW 22:19:08 26° W 22:23:29 10° NW visible
14 Apr 8.6 21:44:36 11° S 21:49:26 45° W 21:54:28 10° NNW visible
15 Apr 7.8 21:14:40 10° SSE 21:19:51 80° WSW 21:25:08 10° NNW visible
15 Apr 10.3 22:58:18 10° WSW 23:00:09 12° W 23:02:02 10° WNW visible
16 Apr 7.8 20:45:17 10° SSE 20:50:24 60° ENE 20:55:34 10° N visible
16 Apr 9.8 22:26:20 10° SW 22:30:16 21° W 22:34:14 10° NW visible
17 Apr 8.4 20:16:22 10° SE 20:21:05 35° ENE 20:25:48 10° N visible
17 Apr 8.9 21:55:42 10° SSW 22:00:30 37° W 22:05:22 10° NNW visible
18 Apr 8.0 21:25:42 10° S 21:30:53 65° WSW 21:36:07 10° NNW visible
19 Apr 7.7 20:56:11 10° SSE 21:01:23 73° ENE 21:06:38 10° NNW visible
19 Apr 10.0 22:38:00 10° SW 22:41:24 17° W 22:44:51 10° NW visible
20 Apr 8.2 20:27:07 10° SE 20:32:01 43° ENE 20:36:57 10° N visible
20 Apr 9.3 22:07:02 10° SSW 22:11:36 30° W 22:16:12 10° NNW visible
21 Apr 8.3 21:36:50 10° S 21:41:56 53° W 21:47:04 10° NNW visible
22 Apr 7.7 21:07:09 10° SSE 21:12:23 88° E 21:17:40 10° NNW visible
22 Apr 10.2 22:49:52 10° WSW 22:52:34 14° W 22:55:17 10° NW visible
